Météo par heure à Kyslyn

Ce jour, 24 Juillet, Samedi

Heure Température Précipitation Vent Pression Humidité
00:00 +17°C° 0 mm 2 m/s 743 mmHg 75%
01:00 +16°C° 0 mm 2 m/s 743 mmHg 76%
02:00 +16°C° 0 mm 2 m/s 743 mmHg 77%
03:00 +16°C° 0 mm 2 m/s 743 mmHg 77%
04:00 +16°C° 0 mm 2 m/s 743 mmHg 77%
05:00 +17°C° 0 mm 2 m/s 743 mmHg 77%
06:00 +18°C° 0 mm 2 m/s 743 mmHg 74%
07:00 +19°C° 0 mm 2 m/s 743 mmHg 70%
08:00 +21°C° 0 mm 2 m/s 744 mmHg 67%
09:00 +23°C° 0 mm 2 m/s 744 mmHg 63%
10:00 +24°C° 0 mm 2 m/s 744 mmHg 60%
11:00 +25°C° 0 mm 2 m/s 744 mmHg 56%
12:00 +25°C° 0 mm 2 m/s 744 mmHg 53%
13:00 +26°C° 0 mm 2 m/s 744 mmHg 50%
14:00 +26°C° 0 mm 2 m/s 744 mmHg 48%
15:00 +26°C° 0 mm 2 m/s 744 mmHg 49%
16:00 +26°C° 0 mm 2 m/s 744 mmHg 51%
17:00 +26°C° 0 mm 2 m/s 744 mmHg 52%
18:00 +24°C° 0 mm 2 m/s 744 mmHg 55%
19:00 +23°C° 0 mm 1 m/s 745 mmHg 58%
20:00 +22°C° 0 mm 1 m/s 745 mmHg 61%
21:00 +22°C° 0 mm 1 m/s 745 mmHg 61%
22:00 +21°C° 0 mm 1 m/s 745 mmHg 60%
23:00 +19°C° 0 mm 0 m/s 745 mmHg 60%

Demain, 25 Juillet, Dimanche

Heure Température Précipitation Vent Pression Humidité
00:00 +19°C° 0 mm 0 m/s 745 mmHg 60%
01:00 +19°C° 0 mm 0 m/s 745 mmHg 60%
02:00 +19°C° 0 mm 0 m/s 745 mmHg 60%
03:00 +19°C° 0 mm 0 m/s 746 mmHg 61%
04:00 +19°C° 0 mm 0 m/s 746 mmHg 61%
05:00 +19°C° 0 mm 0 m/s 746 mmHg 61%
06:00 +19°C° 0 mm 0 m/s 746 mmHg 62%
07:00 +20°C° 0 mm 0 m/s 746 mmHg 63%
08:00 +21°C° 0 mm 0 m/s 746 mmHg 64%
09:00 +22°C° 0 mm 0 m/s 747 mmHg 59%
10:00 +25°C° 0 mm 1 m/s 747 mmHg 54%
11:00 +26°C° 0 mm 1 m/s 747 mmHg 49%
12:00 +26°C° 0 mm 1 m/s 747 mmHg 46%
13:00 +25°C° 0 mm 0 m/s 747 mmHg 43%
14:00 +26°C° 0 mm 0 m/s 747 mmHg 40%
15:00 +27°C° 0 mm 1 m/s 747 mmHg 43%
16:00 +27°C° 0 mm 1 m/s 747 mmHg 46%
17:00 +27°C° 0 mm 1 m/s 746 mmHg 48%
18:00 +25°C° 0 mm 1 m/s 747 mmHg 51%
19:00 +24°C° 0 mm 1 m/s 747 mmHg 53%
20:00 +23°C° 0 mm 1 m/s 747 mmHg 55%
21:00 +23°C° 0 mm 1 m/s 747 mmHg 55%
22:00 +22°C° 0 mm 1 m/s 747 mmHg 56%
23:00 +22°C° 0 mm 1 m/s 747 mmHg 56%

Après-demain, 26 Juillet, Lundi

Heure Température Précipitation Vent Pression Humidité
00:00 +21°C° 0 mm 1 m/s 747 mmHg 59%
01:00 +20°C° 0 mm 2 m/s 747 mmHg 62%
02:00 +19°C° 0 mm 2 m/s 747 mmHg 64%
03:00 +19°C° 0 mm 2 m/s 747 mmHg 65%
04:00 +19°C° 0 mm 2 m/s 747 mmHg 65%
05:00 +19°C° 0 mm 2 m/s 747 mmHg 65%
06:00 +20°C° 0 mm 2 m/s 747 mmHg 64%
07:00 +23°C° 0 mm 2 m/s 747 mmHg 62%
08:00 +24°C° 0 mm 2 m/s 747 mmHg 60%
09:00 +25°C° 0 mm 2 m/s 748 mmHg 56%
10:00 +27°C° 0 mm 2 m/s 748 mmHg 52%
11:00 +28°C° 0 mm 2 m/s 748 mmHg 47%
12:00 +28°C° 0 mm 2 m/s 748 mmHg 47%
13:00 +28°C° 0 mm 1 m/s 748 mmHg 46%
14:00 +29°C° 0 mm 1 m/s 747 mmHg 45%
15:00 +28°C° 0 mm 1 m/s 747 mmHg 46%
16:00 +28°C° 0 mm 1 m/s 747 mmHg 48%
17:00 +28°C° 0 mm 1 m/s 747 mmHg 49%
18:00 +26°C° 0 mm 2 m/s 747 mmHg 55%
19:00 +25°C° 0 mm 2 m/s 747 mmHg 60%
20:00 +22°C° 0 mm 3 m/s 747 mmHg 65%
21:00 +21°C° 0 mm 3 m/s 747 mmHg 65%
22:00 +21°C° 0 mm 3 m/s 747 mmHg 65%
23:00 +20°C° 0 mm 3 m/s 747 mmHg 65%

27 Juillet, Mardi

Heure Température Précipitation Vent Pression Humidité
00:00 +20°C° 0 mm 3 m/s 747 mmHg 65%
01:00 +20°C° 0 mm 2 m/s 747 mmHg 65%
02:00 +20°C° 0 mm 2 m/s 747 mmHg 65%
03:00 +20°C° 0 mm 2 m/s 747 mmHg 65%
04:00 +20°C° 0 mm 3 m/s 747 mmHg 64%
05:00 +20°C° 0 mm 3 m/s 747 mmHg 63%
06:00 +21°C° 0 mm 3 m/s 747 mmHg 62%
07:00 +24°C° 0 mm 3 m/s 747 mmHg 62%
08:00 +25°C° 0 mm 4 m/s 747 mmHg 61%
09:00 +26°C° 0 mm 4 m/s 747 mmHg 56%
10:00 +28°C° 0 mm 4 m/s 747 mmHg 52%
11:00 +29°C° 0 mm 4 m/s 747 mmHg 47%
12:00 +30°C° 0 mm 4 m/s 747 mmHg 44%
13:00 +32°C° 0 mm 4 m/s 747 mmHg 42%
14:00 +32°C° 0 mm 4 m/s 747 mmHg 39%
15:00 +32°C° 0 mm 4 m/s 747 mmHg 41%
16:00 +31°C° 0 mm 3 m/s 746 mmHg 43%
17:00 +31°C° 0 mm 3 m/s 746 mmHg 46%
18:00 +29°C° 0 mm 3 m/s 746 mmHg 49%
19:00 +27°C° 0 mm 3 m/s 746 mmHg 53%
20:00 +25°C° 0 mm 3 m/s 746 mmHg 57%
21:00 +25°C° 0 mm 3 m/s 746 mmHg 55%
22:00 +24°C° 0 mm 3 m/s 746 mmHg 54%
23:00 +22°C° 0 mm 3 m/s 746 mmHg 52%

28 Juillet, Mercredi

Heure Température Précipitation Vent Pression Humidité
00:00 +22°C° 0 mm 4 m/s 745 mmHg 52%
01:00 +21°C° 0 mm 4 m/s 745 mmHg 52%
02:00 +21°C° 0 mm 4 m/s 745 mmHg 52%
03:00 +21°C° 0 mm 4 m/s 745 mmHg 56%
04:00 +20°C° 0 mm 3 m/s 745 mmHg 59%
05:00 +20°C° 0 mm 3 m/s 744 mmHg 62%
06:00 +22°C° 0 mm 3 m/s 744 mmHg 61%
07:00 +23°C° 0 mm 4 m/s 745 mmHg 59%
08:00 +26°C° 0 mm 4 m/s 745 mmHg 58%
09:00 +26°C° 0 mm 5 m/s 745 mmHg 57%
10:00 +27°C° 0 mm 6 m/s 744 mmHg 56%
11:00 +27°C° 0 mm 6 m/s 744 mmHg 56%
12:00 +28°C° 0 mm 7 m/s 744 mmHg 54%
13:00 +29°C° 0 mm 7 m/s 743 mmHg 53%
14:00 +30°C° 0 mm 7 m/s 743 mmHg 51%
15:00 +30°C° 0 mm 6 m/s 743 mmHg 52%
16:00 +32°C° 0 mm 6 m/s 742 mmHg 53%
17:00 +32°C° 0 mm 5 m/s 742 mmHg 55%
18:00 +29°C° 0 mm 5 m/s 742 mmHg 59%
19:00 +27°C° 0 mm 6 m/s 742 mmHg 64%
20:00 +24°C° 0 mm 7 m/s 742 mmHg 69%
21:00 +23°C° 0 mm 6 m/s 742 mmHg 71%
22:00 +22°C° 0 mm 5 m/s 741 mmHg 73%
23:00 +21°C° 0 mm 3 m/s 741 mmHg 75%

29 Juillet, Jeudi

Heure Température Précipitation Vent Pression Humidité
00:00 +21°C° 0 mm 3 m/s 741 mmHg 78%
01:00 +20°C° 0 mm 3 m/s 741 mmHg 80%
02:00 +19°C° 0 mm 3 m/s 741 mmHg 83%
03:00 +19°C° 0 mm 3 m/s 741 mmHg 87%
04:00 +19°C° 0 mm 3 m/s 741 mmHg 90%
05:00 +19°C° 0 mm 3 m/s 741 mmHg 93%
06:00 +19°C° 0 mm 4 m/s 741 mmHg 90%
07:00 +20°C° 0 mm 4 m/s 742 mmHg 86%
08:00 +21°C° 0 mm 5 m/s 742 mmHg 82%
09:00 +23°C° 0 mm 5 m/s 742 mmHg 78%
10:00 +25°C° 0 mm 5 m/s 742 mmHg 73%
11:00 +26°C° 0 mm 5 m/s 742 mmHg 69%
12:00 +27°C° 0.1 mm 5 m/s 742 mmHg 66%
13:00 +27°C° 0.1 mm 5 m/s 742 mmHg 62%
14:00 +28°C° 0.1 mm 5 m/s 742 mmHg 59%
15:00 +28°C° 0.1 mm 5 m/s 742 mmHg 62%
16:00 +27°C° 0.1 mm 4 m/s 742 mmHg 65%
17:00 +27°C° 0.1 mm 4 m/s 742 mmHg 68%
18:00 +25°C° 0.1 mm 4 m/s 743 mmHg 72%
19:00 +24°C° 0.1 mm 3 m/s 743 mmHg 77%
20:00 +22°C° 0.1 mm 3 m/s 743 mmHg 82%
21:00 +21°C° 0 mm 3 m/s 743 mmHg 84%
22:00 +21°C° 0 mm 2 m/s 743 mmHg 85%
23:00 +20°C° 0 mm 2 m/s 743 mmHg 87%
Voir plus

Nous avons besoin de votre consentement

Meteoprog et ses fournisseurs de services peuvent stocker et accéder à des données personnelles telles que des cookies, des identifiants d'appareils ou d'autres technologies similaires sur votre appareil et traiter ces données pour personnaliser le contenu et les publicités, ainsi que pour fournir des fonctionnalités de médias sociaux et analyser le trafic.

  • Stocker et/ou accéder à des informations sur votre appareil

    Des cookies, des identifiants d'appareils ou d'autres informations peuvent être stockés ou accessibles sur votre appareil aux fins indiquées ci-dessus.

  • Annonces et contenus personnalisés, mesure des annonces et des contenus, connaissance de l'audience et développement de produits

    Les annonces et le contenu peuvent être personnalisés en fonction d'un profil. D'autres données peuvent être ajoutées pour mieux personnaliser les annonces et le contenu. Les performances des publicités et du contenu peuvent être mesurées. Il est possible d'obtenir des informations sur le public qui a vu les publicités et le contenu. Ces données peuvent être utilisées pour développer ou améliorer l'expérience de l'utilisateur, les systèmes et les logiciels.

En cliquant sur "J'accepte", vous autorisez l'utilisation de cookies, des identifiants d'appareils, des balises web ou d'autres technologies similaires. Vos paramètres peuvent être modifiés dans le navigateur de votre appareil.

Dans certains cas, des intérêts légitimes peuvent être invoqués plutôt qu'un consentement. Vous pouvez en savoir plus à ce sujet dans notre Politique de confidentialité et de cookies.